[[{"header":{"parameterUnit":"m.s-1","parameterCategory":1,"la1":30.2991,"la2":30.254,"lo1":-89.0895,"lo2":-89.0444,"dy":0.0017,"dx":0.0017,"nx":28,"ny":28,"refTime":"2025-01-06T09:00:00:Z","depth":0,"parameterNumber":2,"parameterNumberName":"U-component_of_WINDS"},"data":[0,0,0,0,0,0,0,0,0,0,0,0,0,0,0,0,0,0,0,0,0,0,0,0,0,0,0,0,0,0,0,0,0,0,0,0,0,0,0,0,0,0,0,0,0,0,0,0,0,0,0,0,0,0,0,0,0,0,0.115,0.1149,0,0.1118,0.1117,0.1117,0.1116,0.1116,0.1117,0.1117,0.1083,0.1082,0.1081,0,0,0,0,0,0,0,0,0,0,0,0,0,0.1211,0.121,0.115,0.1149,0.1149,0.1118,0.1117,0.1117,0.1116,0.1116,0.1117,0.1117,0.1084,0.1082,0.1081,0,0,0,0,0,0,0,0,0,0,0,0,0,0.1182,0.1209,0.115,0.1145,0.1144,0.1118,0.1117,0.1117,0.1116,0.1116,0.1117,0.1117,0.1084,0.1082,0.108,0.1057,0,0,0.1075,0.1074,0,0,0,0,0,0,0,0,0.1184,0.118,0.1146,0.1145,0.1144,0.1121,0.1126,0.1097,0.1116,0.1126,0.1117,0.1118,0.1095,0.1093,0.1085,0.1055,0.1054,0.1074,0.1073,0.1073,0.1072,0,0,0,0,0,0,0,0.1186,0.1181,0.1137,0.1145,0.1144,0.1144,0.1141,0.1121,0.1108,0.1126,0.1125,0.1122,0.1095,0.1087,0.1084,0.1053,0.1075,0.1073,0.1072,0.1071,0.1004,0.1003,0,0,0,0,0,0,0.1189,0.1183,0.1138,0.1136,0.1166,0.1143,0.1139,0.1128,0.1108,0.1106,0.1121,0.1122,0.109,0.1087,0.1083,0.1055,0.1073,0.1071,0.107,0.1004,0.1004,0.1003,0,0,0,0,0,0,0.119,0.1185,0.1139,0.1159,0.1154,0.1141,0.1129,0.1127,0.1119,0.1105,0.1103,0.1115,0.109,0.1086,0.1064,0.1054,0.107,0.1068,0.1005,0.1004,0.1003,0.0998,0,0,0,0,0,0,0.1192,0.1185,0.1176,0.1159,0.1153,0.112,0.1128,0.1126,0.1116,0.1116,0.1099,0.1096,0.1091,0.1067,0.1062,0.1051,0.1067,0.1006,0.1005,0.1004,0.0999,0.0997,0.0995,0,0,0,0,0,0.1194,0.1175,0.1175,0.117,0.1141,0.112,0.1116,0.111,0.1115,0.1106,0.1097,0.1097,0.1056,0.1064,0.1059,0.1048,0.1007,0.1005,0.1004,0.1,0.0997,0.0995,0,0,0,0,0,0,0.119,0.1173,0.1173,0.1148,0.1136,0.112,0.1108,0.1107,0.1092,0.1093,0.1086,0.1082,0.106,0.1052,0.1062,0.1025,0.1032,0.1029,0.1031,0.1028,0.1026,0.1029,0.1065,0,0,0,0,0,0.1187,0.1171,0.1157,0.1137,0.113,0.112,0.1111,0.1107,0.1093,0.1088,0.1077,0.1064,0.1048,0.1038,0.1022,0.0998,0.0994,0.0988,0.0986,0.0984,0.0982,0.0969,0.0966,0.0998,0.0998,0.0998,0,0,0.1179,0.1168,0.1158,0.1136,0.1125,0.111,0.1115,0.1098,0.1086,0.1085,0.1064,0.1056,0.1041,0.1017,0.1007,0.101,0.0973,0.0982,0.0981,0.098,0.0968,0.0965,0.0962,0.0997,0.0997,0.0997,0,0,0.1157,0.1147,0.1129,0.1119,0.1104,0.1097,0.1093,0.1077,0.1072,0.1051,0.105,0.1036,0.1009,0.0998,0.0989,0.0965,0.0964,0.096,0.095,0.0937,0.0935,0.0933,0.0924,0.0921,0.0958,0.0958,0.0958,0,0.1149,0.1125,0.112,0.1103,0.1093,0.1092,0.1075,0.1065,0.1045,0.1039,0.1043,0.1009,0.0999,0.0974,0.0968,0.0961,0.0956,0.0961,0.0936,0.0934,0.0931,0.0923,0.092,0.0957,0.0957,0.0957,0.0957,0,0.1117,0.1101,0.1088,0.107,0.1059,0.1041,0.1034,0.1023,0.1021,0.1015,0.0993,0.0981,0.0964,0.0957,0.0955,0.0932,0.0935,0.0937,0.0944,0.0928,0.092,0.0917,0.0957,0.0957,0.0957,0.0957,0,0,0.109,0.107,0.1066,0.1058,0.1042,0.1029,0.1012,0.0995,0.0987,0.0974,0.096,0.0937,0.094,0.093,0.0926,0.0916,0.0898,0.092,0.0919,0.0916,0.0873,0.0871,0.0867,0.0898,0.0897,0.0897,0.0874,0,0.1067,0.1037,0.1032,0.1005,0.0991,0.099,0.0976,0.0964,0.0958,0.0945,0.0938,0.0922,0.0927,0.0921,0.091,0.0902,0.0889,0.0904,0.0885,0.0884,0.0888,0.0863,0.0861,0.084,0.0871,0.0871,0.087,0,0.1034,0.1021,0.0994,0.098,0.0974,0.0961,0.0946,0.0933,0.092,0.0917,0.0906,0.0904,0.0887,0.0896,0.0872,0.0883,0.0875,0.087,0.0869,0.0867,0.0876,0.086,0.0833,0.083,0.0865,0.0866,0.0866,0,0.1018,0.0993,0.0974,0.0967,0.0951,0.0942,0.0935,0.0923,0.0914,0.0901,0.0895,0.088,0.0872,0.086,0.0855,0.0861,0.0832,0.084,0.0829,0.0829,0.0822,0.0822,0.0793,0.0817,0.0817,0.0817,0.0817,0,0.0992,0.0975,0.0967,0.0954,0.0936,0.0931,0.0913,0.0906,0.0896,0.0883,0.0881,0.0869,0.0863,0.0849,0.0845,0.0827,0.0823,0.082,0.0819,0.082,0.082,0.0814,0.0815,0.0816,0.0817,0.0817,0.0817,0,0.097,0.0964,0.0943,0.093,0.0926,0.0913,0.0902,0.0891,0.0885,0.0869,0.0864,0.0855,0.084,0.0834,0.0815,0.0812,0.0791,0.0791,0.0795,0.0795,0.0784,0.0785,0.0749,0.0745,0.0772,0.0772,0.0772,0,0.0954,0.0941,0.0927,0.0918,0.0911,0.0897,0.0888,0.0883,0.0874,0.0859,0.085,0.0834,0.0822,0.0798,0.0789,0.0775,0.0775,0.0764,0.0773,0.0775,0.0775,0.0776,0.0775,0.0762,0.0761,0.0761,0.0761,0,0.0925,0.0923,0.091,0.0896,0.0885,0.0874,0.0863,0.0856,0.0849,0.0839,0.0824,0.0814,0.0795,0.078,0.0766,0.0759,0.0759,0.0758,0.0755,0.0756,0.0759,0.0757,0.079,0.0759,0.0759,0.0759,0.0759,0.0759,0.0906,0.0895,0.0884,0.0869,0.0861,0.0851,0.084,0.0833,0.082,0.0805,0.0803,0.0786,0.0775,0.0756,0.0749,0.0736,0.0739,0.0734,0.0733,0.0732,0.0731,0.0761,0.0733,0.0733,0.0733,0.0734,0.0734,0,0.0877,0.0871,0.0858,0.0843,0.0832,0.0833,0.0821,0.0812,0.0798,0.0788,0.0776,0.0759,0.0745,0.0736,0.0722,0.0714,0.0713,0.071,0.0711,0.0709,0.0729,0.0733,0.0711,0.0711,0.0711,0.0711,0.0711,0.0711,0.0861,0.0843,0.084,0.0817,0.0811,0.0795,0.0788,0.0779,0.0771,0.0752,0.0741,0.0735,0.0726,0.0711,0.0699,0.0697,0.0692,0.0688,0.0686,0.0705,0.0708,0.071,0.0714,0.0687,0.0687,0.0667,0.0667,0.0667]},{"header":{"parameterUnit":"m.s-1","parameterCategory":1,"la1":30.2991,"la2":30.254,"lo1":-89.0895,"lo2":-89.0444,"dy":0.0017,"dx":0.0017,"nx":28,"ny":28,"refTime":"2025-01-06T09:00:00:Z","depth":0,"parameterNumber":3,"parameterNumberName":"V-component_of_WINDS"},"data":[0,0,0,0,0,0,0,0,0,0,0,0,0,0,0,0,0,0,0,0,0,0,0,0,0,0,0,0,0,0,0,0,0,0,0,0,0,0,0,0,0,0,0,0,0,0,0,0,0,0,0,0,0,0,0,0,0,0,-5.8838,-5.8839,0,-5.8962,-5.8964,-5.8965,-5.8898,-5.8894,-5.8891,-5.8888,-5.901,-5.9016,-5.9022,0,0,0,0,0,0,0,0,0,0,0,0,0,-5.8536,-5.8542,-5.8838,-5.8839,-5.8841,-5.8962,-5.8964,-5.8965,-5.8898,-5.8894,-5.889,-5.8886,-5.9008,-5.9015,-5.9023,0,0,0,0,0,0,0,0,0,0,0,0,0,-5.8665,-5.8544,-5.8837,-5.8822,-5.8822,-5.8962,-5.8964,-5.8966,-5.8899,-5.8894,-5.8889,-5.8884,-5.9005,-5.9015,-5.9024,-5.9184,0,0,-5.9053,-5.9057,0,0,0,0,0,0,0,0,-5.8657,-5.8676,-5.8823,-5.8823,-5.8824,-5.8909,-5.8902,-5.9039,-5.89,-5.887,-5.8888,-5.8882,-5.898,-5.8991,-5.9026,-5.919,-5.9195,-5.9054,-5.906,-5.9064,-5.9067,0,0,0,0,0,0,0,-5.8649,-5.867,-5.8887,-5.8825,-5.8825,-5.8807,-5.882,-5.8928,-5.8951,-5.8872,-5.8867,-5.8883,-5.8979,-5.9017,-5.9028,-5.9197,-5.9054,-5.9062,-5.9068,-5.9072,-5.9497,-5.9502,0,0,0,0,0,0,-5.8641,-5.8663,-5.8883,-5.889,-5.8727,-5.8817,-5.8831,-5.8887,-5.895,-5.8955,-5.8887,-5.888,-5.9003,-5.9017,-5.9032,-5.9223,-5.9064,-5.9073,-5.9079,-5.9491,-5.9498,-5.9504,0,0,0,0,0,0,-5.8635,-5.8662,-5.8878,-5.8776,-5.8802,-5.8827,-5.8891,-5.8892,-5.8929,-5.8962,-5.8965,-5.8922,-5.8999,-5.9019,-5.9147,-5.9226,-5.9077,-5.9086,-5.9485,-5.9493,-5.9501,-5.9606,0,0,0,0,0,0,-5.8627,-5.866,-5.8723,-5.8778,-5.8808,-5.8993,-5.8896,-5.8898,-5.8947,-5.8937,-5.8995,-5.9,-5.8997,-5.9133,-5.9156,-5.9236,-5.9094,-5.9478,-5.9489,-5.9498,-5.9595,-5.9617,-5.9635,0,0,0,0,0,-5.8616,-5.8746,-5.8726,-5.8753,-5.8887,-5.8997,-5.9014,-5.901,-5.8953,-5.9015,-5.9036,-5.8998,-5.9214,-5.9147,-5.9172,-5.9257,-5.9473,-5.9485,-5.9497,-5.9586,-5.9612,-5.9634,0,0,0,0,0,0,-5.8698,-5.8753,-5.8731,-5.8884,-5.8937,-5.8986,-5.9064,-5.9038,-5.9107,-5.9095,-5.9085,-5.9099,-5.9232,-5.9257,-5.9181,-5.9414,-5.9334,-5.9352,-5.9393,-5.9418,-5.9437,-5.9428,-5.9102,0,0,0,0,0,-5.8735,-5.8822,-5.8864,-5.8994,-5.9022,-5.9039,-5.9087,-5.9079,-5.9133,-5.9154,-5.9184,-5.9236,-5.9316,-5.9368,-5.9443,-5.9599,-5.9609,-5.9669,-5.9689,-5.9705,-5.972,-5.9802,-5.9829,-5.9545,-5.9545,-5.9544,0,0,-5.8809,-5.885,-5.8905,-5.9012,-5.9052,-5.914,-5.9058,-5.9155,-5.922,-5.9168,-5.9291,-5.9316,-5.9373,-5.9515,-5.9579,-5.954,-5.9801,-5.9721,-5.9733,-5.974,-5.9818,-5.9845,-5.9869,-5.9553,-5.9552,-5.955,0,0,-5.8991,-5.9031,-5.9143,-5.9185,-5.9248,-5.9258,-5.9285,-5.9338,-5.9353,-5.9476,-5.9439,-5.9515,-5.9652,-5.9694,-5.9734,-5.993,-5.9896,-5.9955,-6.0057,-6.0138,-6.016,-6.018,-6.0248,-6.0273,-5.997,-5.997,-5.9971,0,-5.9075,-5.9209,-5.9204,-5.9304,-5.9351,-5.931,-5.9422,-5.9462,-5.9545,-5.9578,-5.9533,-5.9704,-5.974,-5.989,-5.9938,-5.9972,-6.0,-5.9948,-6.0158,-6.0177,-6.0196,-6.0261,-6.0287,-5.9977,-5.9976,-5.9975,-5.9975,0,-5.9309,-5.9402,-5.9485,-5.9568,-5.9624,-5.973,-5.9738,-5.9796,-5.9783,-5.9797,-5.9922,-5.9964,-6.0045,-6.0081,-6.0069,-6.023,-6.0203,-6.0159,-6.0078,-6.0229,-6.029,-6.0315,-5.9986,-5.9984,-5.9982,-5.998,0,0,-5.9546,-5.9624,-5.9654,-5.9691,-5.9756,-5.9827,-5.993,-6.0011,-6.006,-6.0118,-6.0203,-6.032,-6.0278,-6.0323,-6.0315,-6.0386,-6.0537,-6.0332,-6.0333,-6.0367,-6.0714,-6.0747,-6.0776,-6.0515,-6.052,-6.0524,-6.0709,0,-5.973,-5.9913,-5.991,-6.0078,-6.0163,-6.0124,-6.0213,-6.0262,-6.0278,-6.035,-6.0367,-6.0449,-6.039,-6.0416,-6.0484,-6.0504,-6.0606,-6.0491,-6.0592,-6.0595,-6.0578,-6.0808,-6.0843,-6.1016,-6.0733,-6.0737,-6.074,0,-5.997,-6.0038,-6.0215,-6.0266,-6.0302,-6.0382,-6.0456,-6.0527,-6.058,-6.0586,-6.0636,-6.0617,-6.0719,-6.0637,-6.0776,-6.0698,-6.0738,-6.0754,-6.0761,-6.0769,-6.0676,-6.0821,-6.1071,-6.1096,-6.0778,-6.0775,-6.0772,0,-6.0123,-6.0258,-6.0381,-6.0414,-6.0477,-6.0535,-6.0563,-6.0612,-6.0661,-6.0725,-6.0756,-6.083,-6.0871,-6.0928,-6.0928,-6.0869,-6.1069,-6.0986,-6.1075,-6.1075,-6.1118,-6.1115,-6.1377,-6.1147,-6.1147,-6.1146,-6.1146,0,-6.0329,-6.0438,-6.0451,-6.0526,-6.0646,-6.0642,-6.076,-6.0784,-6.0827,-6.0904,-6.0875,-6.0948,-6.0945,-6.1019,-6.1019,-6.1134,-6.1152,-6.1159,-6.1157,-6.1161,-6.116,-6.1187,-6.1174,-6.1153,-6.1151,-6.115,-6.1149,0,-6.052,-6.0533,-6.0664,-6.0714,-6.0729,-6.0816,-6.0857,-6.0928,-6.0941,-6.1039,-6.1062,-6.1082,-6.1167,-6.1173,-6.1271,-6.1271,-6.1409,-6.1395,-6.1392,-6.1389,-6.1477,-6.1468,-6.1763,-6.1801,-6.1548,-6.1551,-6.1553,0,-6.065,-6.0734,-6.0793,-6.0843,-6.0876,-6.0958,-6.1008,-6.1006,-6.1058,-6.1125,-6.1187,-6.1269,-6.1335,-6.1472,-6.1494,-6.1568,-6.1555,-6.1653,-6.1565,-6.1566,-6.1554,-6.1549,-6.1556,-6.167,-6.1673,-6.1675,-6.1677,0,-6.0879,-6.0882,-6.0955,-6.1032,-6.1093,-6.1152,-6.1207,-6.125,-6.1254,-6.1315,-6.1402,-6.1453,-6.1553,-6.1635,-6.1707,-6.1734,-6.1706,-6.1704,-6.1728,-6.1732,-6.1726,-6.1729,-6.1437,-6.1697,-6.1695,-6.1694,-6.1693,-6.1692,-6.1043,-6.1115,-6.1167,-6.125,-6.1292,-6.1344,-6.1413,-6.1435,-6.1508,-6.1591,-6.1584,-6.168,-6.1729,-6.1824,-6.1857,-6.193,-6.1897,-6.1932,-6.1941,-6.1949,-6.1958,-6.1716,-6.1944,-6.1943,-6.1943,-6.1942,-6.1942,0,-6.1269,-6.1301,-6.1378,-6.1457,-6.1521,-6.1491,-6.155,-6.1606,-6.1691,-6.1741,-6.1806,-6.1905,-6.1984,-6.2012,-6.2088,-6.2141,-6.213,-6.2161,-6.2156,-6.2162,-6.1984,-6.1955,-6.2169,-6.2169,-6.2168,-6.2168,-6.2168,-6.2168,-6.1394,-6.1513,-6.1522,-6.166,-6.1691,-6.1786,-6.1822,-6.187,-6.1909,-6.2022,-6.2087,-6.2106,-6.2146,-6.2224,-6.2294,-6.23,-6.2328,-6.2365,-6.2365,-6.2198,-6.2175,-6.2153,-6.2126,-6.2372,-6.2372,-6.2537,-6.2539,-6.254]}]]